Preview of NWS' New Version of Forecast
This preview is not operational and should not be used for support decisions.

Regional Weather Roundup (RWR)

Issued by National Weather Service (NWS)

                            
000
ASCA42 TJSJ 230210
RWRPR 
PUERTO RICO/U.S. VIRGIN ISLANDS HOURLY WEATHER ROUNDUP
NATIONAL WEATHER SERVICE SAN JUAN PR
1000 PM AST WED MAY 22 2019

PRZ001>002-007>008-010-230300-
PUERTO RICO
  
CITY           SKY/WX    TMP DP  RH WIND       PRES   REMARKS
SAN JUAN LMM   PTCLDY    81  73  78 E7        29.99R                  
AGUADILLA      MOCLDY    79  75  89 E10G18    29.98S                  
$$

VIZ001>002-230300-
U.S. VIRGIN ISLANDS
  
CITY           SKY/WX    TMP DP  RH WIND       PRES   REMARKS
CHARLOTTE AMA  PTCLDY    81  72  74 E12       29.97R                  
CHRISTIANSTED  PTCLDY    79  72  78 NE6       29.98R                  
$$

HOURLY WEATHER ROUNDUP FOR THE NEWS MEDIA
  
CITY           SKY/WX    TMP DP  RH WIND       PRES   REMARKS
ORLANDO        FAIR      77  65  66 E8        30.16R                  
NEW YORK       MOCLDY    61  52  72 S8        30.24R                  
NEWARK         MOCLDY    67  42  40 S10       30.22R                  
CHICAGO        MOCLDY    76  61  59 S15G23    29.83S                  
HARTFORD       FAIR      51  45  79 SE7       30.26F                  
BOSTON         FAIR      57  41  55 S12       30.25F                  
DALLAS         PTCLDY    86  69  56 SE13      29.78R HX  90           
PHILADELPHIA   MOCLDY    66  45  46 S8        30.25R                  
LOS ANGELES    PTCLDY    61  50  67 S8        29.75R                  
WASHINGTON DC  MOCLDY    65  48  54 S8        30.24S